Danville, KY

7:10 PM EST on November 12, 2019 (GMT -0500)
Powell

Weather History for KDVK - October, 2019

Change the Weather History Date:

Monday, October 21, 2019

  Actual Average (KLEX) Record (KLEX)
Temperature  
Mean Temperature 60 °F -  
Max Temperature 75 °F 65 °F 85 °F (1953)
Min Temperature 46 °F 44 °F 24 °F (1952)
Degree Days  
Heating Degree Days 4    
Growing Degree Days 10 (Base 50)    
Moisture  
Dew Point 55 °F    
Average Humidity 89    
Maximum Humidity 100    
Minimum Humidity 57    
Precipitation  
Precipitation 0.00 in - - ()
Sea Level Pressure  
Sea Level Pressure 29.88 in    
Wind  
Wind Speed 5 mph (SSW)    
Max Wind Speed 18 mph    
Max Gust Speed 30 mph    
Visibility 8 miles    
Events Fog , Rain    
Averages and records for this station are not official NWS values.
T = Trace of Precipitation, MM = Missing Value Source: NWS Daily Summary

Daily Weather History Graph

Daily Weather History Graph

Search for Another Location

Airport or City:

Astronomy

Oct. 21, 2019 Rise Set
Actual Time 7:52 AM EDT 6:54 PM EDT
Civil Twilight 7:26 AM EDT 7:20 PM EDT
Nautical Twilight 6:55 AM EDT 7:51 PM EDT
Astronomical Twilight 6:25 AM EDT 8:21 PM EDT
Moon 12:07 AM EDT (10/21) 3:06 PM EDT (10/21)
Length of Visible Light 11h 54m
Length of Day
11h 01m
Waning Gibbous, 48% of the Moon is Illuminated
Oct 21
Waning Gibbous
Oct 27
New
Nov 4
First Quarter
Nov 12
Full
Nov 19
Last Quarter

Hourly Weather History & Observations

Time (EDT) Temp. Dew Point Humidity Pressure Visibility Wind Dir Wind Speed Gust Speed Precip Events Conditions
12:15 AM 50.0 °F 50.0 °F 100% 29.98 in 0.5 mi Calm Calm - N/A Fog Fog
12:35 AM 50.0 °F 50.0 °F 100% 29.98 in 0.5 mi Calm Calm - N/A Fog Fog
12:55 AM 48.2 °F 48.2 °F 100% 29.98 in 0.5 mi Calm Calm - N/A Fog Fog
1:15 AM 50.0 °F 50.0 °F 100% 29.97 in 1.2 mi Calm Calm - N/A   Overcast
1:35 AM 46.4 °F 46.4 °F 100% 29.96 in 0.5 mi Calm Calm - N/A Fog Fog
1:55 AM 48.2 °F 48.2 °F 100% 29.95 in 4.0 mi Calm Calm - N/A   Overcast
2:15 AM 48.2 °F 48.2 °F 100% 29.95 in 0.8 mi Calm Calm - N/A   Overcast
2:35 AM 50.0 °F 50.0 °F 100% 29.94 in 1.2 mi SSE 3.5 mph - N/A   Overcast
2:55 AM 50.0 °F 50.0 °F 100% 29.94 in 1.2 mi Calm Calm - N/A   Overcast
3:15 AM 48.2 °F 48.2 °F 100% 29.93 in 1.2 mi Calm Calm - N/A   Overcast
3:35 AM 50.0 °F 48.2 °F 94% 29.92 in 10.0 mi Calm Calm - N/A   Mostly Cloudy
3:55 AM 50.0 °F 50.0 °F 100% 29.91 in 1.8 mi South 3.5 mph - N/A   Overcast
4:15 AM 50.0 °F 50.0 °F 100% 29.92 in 5.0 mi Calm Calm - N/A   Scattered Clouds
4:35 AM 50.0 °F 50.0 °F 100% 29.91 in 10.0 mi South 3.5 mph - N/A   Scattered Clouds
4:55 AM 51.8 °F 51.8 °F 100% 29.90 in 1.8 mi South 4.6 mph - N/A   Mostly Cloudy
5:15 AM 51.8 °F 51.8 °F 100% 29.91 in 10.0 mi South 3.5 mph - N/A   Scattered Clouds
5:35 AM 51.8 °F 51.8 °F 100% 29.91 in 10.0 mi Calm Calm - N/A   Clear
5:50 AM 51.8 °F 51.8 °F 100% 29.91 in 10.0 mi South 3.5 mph - N/A   Clear
6:15 AM 51.8 °F 50.0 °F 94% 29.91 in 3.0 mi Calm Calm - N/A   Clear
6:35 AM 51.8 °F 51.8 °F 100% 29.90 in 1.0 mi Calm Calm - N/A   Mostly Cloudy
6:55 AM 50.0 °F 50.0 °F 100% 29.90 in 1.2 mi Calm Calm - N/A   Scattered Clouds
7:15 AM 51.8 °F 51.8 °F 100% 29.90 in 7.0 mi South 3.5 mph - N/A   Clear
7:35 AM 51.8 °F 51.8 °F 100% 29.89 in 10.0 mi SSE 3.5 mph - N/A   Clear
7:55 AM 51.8 °F 51.8 °F 100% 29.89 in 10.0 mi South 3.5 mph - N/A   Clear
8:15 AM 51.8 °F 51.8 °F 100% 29.89 in 10.0 mi Calm Calm - N/A   Clear
8:35 AM 53.6 °F 53.6 °F 100% 29.89 in 10.0 mi South 3.5 mph - N/A   Clear
8:55 AM 55.4 °F 55.4 °F 100% 29.89 in 10.0 mi South 6.9 mph - N/A   Clear
9:15 AM 57.2 °F 55.4 °F 94% 29.88 in 10.0 mi South 6.9 mph - N/A   Clear
9:55 AM 60.8 °F 57.2 °F 88% 29.87 in 10.0 mi South 8.1 mph - N/A   Scattered Clouds
10:35 AM 62.6 °F 55.4 °F 77% 29.85 in 10.0 mi South 17.3 mph 25.3 mph N/A   Scattered Clouds
10:55 AM 68.0 °F 55.4 °F 64% 29.85 in 10.0 mi SSW 15.0 mph 23.0 mph N/A   Scattered Clouds
11:15 AM 68.0 °F 55.4 °F 64% 29.85 in 10.0 mi SSW 16.1 mph 23.0 mph N/A   Clear
11:35 AM 68.0 °F 55.4 °F 64% 29.85 in 10.0 mi South 17.3 mph 28.8 mph N/A   Scattered Clouds
11:55 AM 68.0 °F 57.2 °F 68% 29.85 in 10.0 mi SSW 18.4 mph 27.6 mph N/A   Scattered Clouds
12:15 PM 69.8 °F 57.2 °F 64% 29.85 in 10.0 mi SSW 15.0 mph 21.9 mph N/A   Scattered Clouds
12:35 PM 71.6 °F 59.0 °F 64% 29.85 in 10.0 mi South 15.0 mph 23.0 mph N/A   Scattered Clouds
1:15 PM 73.4 °F 59.0 °F 61% 29.86 in 10.0 mi SSW 16.1 mph 29.9 mph N/A   Scattered Clouds
1:35 PM 73.4 °F 59.0 °F 61% 29.85 in 10.0 mi South 17.3 mph 25.3 mph N/A   Mostly Cloudy
1:55 PM 71.6 °F 57.2 °F 60% 29.85 in 10.0 mi SSW 15.0 mph 21.9 mph N/A   Overcast
2:15 PM 73.4 °F 57.2 °F 57% 29.84 in 10.0 mi SSW 12.7 mph 26.5 mph N/A   Overcast
2:35 PM 75.2 °F 59.0 °F 57% 29.84 in 10.0 mi SSW 12.7 mph 26.5 mph N/A   Mostly Cloudy
2:55 PM 73.4 °F 57.2 °F 57% 29.81 in 10.0 mi SSW 16.1 mph 23.0 mph N/A   Overcast
3:15 PM 73.4 °F 57.2 °F 57% 29.81 in 10.0 mi SSW 16.1 mph 23.0 mph N/A   Overcast
3:35 PM 73.4 °F 57.2 °F 57% 29.81 in 10.0 mi SW 12.7 mph 23.0 mph N/A   Overcast
3:55 PM 71.6 °F 57.2 °F 60% 29.82 in 10.0 mi SW 11.5 mph 19.6 mph N/A   Overcast
4:15 PM 66.2 °F 60.8 °F 83% 29.85 in 4.0 mi West 12.7 mph 24.2 mph N/A Rain Rain
4:35 PM 64.4 °F 60.8 °F 88% 29.85 in 7.0 mi WSW 8.1 mph 16.1 mph N/A   Light Drizzle
4:55 PM 64.4 °F 62.6 °F 94% 29.85 in 10.0 mi SW 5.8 mph - N/A   Drizzle
5:15 PM 64.4 °F 60.8 °F 88% 29.85 in 7.0 mi SW 11.5 mph 23.0 mph N/A Rain Light Rain
5:35 PM 62.6 °F 59.0 °F 88% 29.86 in 7.0 mi WSW 12.7 mph 19.6 mph N/A Rain Light Rain
6:15 PM 60.8 °F 59.0 °F 94% 29.84 in 10.0 mi South 10.4 mph - N/A Rain Rain
6:35 PM 59.0 °F 57.2 °F 94% 29.84 in 10.0 mi South 9.2 mph - N/A   Drizzle
6:55 PM 59.0 °F 57.2 °F 94% 29.85 in 10.0 mi South 8.1 mph - N/A Rain Light Rain
7:15 PM 59.0 °F 57.2 °F 94% 29.83 in 10.0 mi South 11.5 mph 18.4 mph N/A Rain Light Rain
7:35 PM 59.0 °F 57.2 °F 94% 29.83 in 10.0 mi South 12.7 mph 18.4 mph N/A Rain Rain
7:55 PM 59.0 °F 59.0 °F 100% 29.85 in 7.0 mi SSW 10.4 mph 17.3 mph N/A Rain Rain
8:15 PM 59.0 °F 59.0 °F 100% 29.83 in 10.0 mi South 10.4 mph 17.3 mph N/A Rain Light Rain
8:35 PM 59.0 °F 57.2 °F 94% 29.84 in 10.0 mi SSW 9.2 mph - N/A Rain Light Rain
8:55 PM 59.0 °F 59.0 °F 100% 29.85 in 10.0 mi SW 6.9 mph - N/A Rain Light Rain
9:15 PM 60.8 °F 59.0 °F 94% 29.84 in 10.0 mi SSW 9.2 mph - N/A Rain Light Rain
9:35 PM 59.0 °F 59.0 °F 100% 29.84 in 10.0 mi SSW 6.9 mph - N/A   Overcast
9:55 PM 60.8 °F 59.0 °F 94% 29.85 in 10.0 mi SW 8.1 mph - N/A Rain Rain
10:15 PM 59.0 °F 59.0 °F 100% 29.86 in 10.0 mi SW 10.4 mph 16.1 mph N/A Rain Light Rain
10:35 PM 59.0 °F 59.0 °F 100% 29.87 in 7.0 mi SW 8.1 mph - N/A Rain Light Rain
10:55 PM 59.0 °F 59.0 °F 100% 29.86 in 10.0 mi SSW 9.2 mph - N/A Rain Light Rain
11:15 PM 59.0 °F 59.0 °F 100% 29.87 in 10.0 mi SW 12.7 mph 16.1 mph N/A   Light Drizzle
11:55 PM 59.0 °F 57.2 °F 94% 29.87 in 10.0 mi SW 8.1 mph - N/A   Overcast